Volver al catálogo

STARLINK-33586

ActivoComunicacionesVLEO
NORAD 63073·PAYLOAD·🇺🇸 United States

Lanzado Feb 21, 2025 desde Cape Canaveral Space Force Station

Loading…

Próximos Pases (próximas 24 horas)

TLE

ActualizadoSource: CelesTrak SupGP

Época: Sep 14, 2026, 22:50 UTC

1 63073C 25035X   26257.95187500 -.00079586  00000+0 -28820-2 0  2576
2 63073  42.9988 151.1414 0001303 270.5235 198.3939 15.27624593    16

Sigue STARLINK-33586 en tiempo real con AllMySat

Download on the App Store